Crookston, MN

12:05 PM CDT on May 26, 2017 (GMT -0500)
Crookston Municipal-Kirkwood

Weather History for KCKN - June, 2013

Change the Weather History Date:

Saturday, June 15, 2013

  Actual Average Record
Temperature  
Mean Temperature 66 °F -  
Max Temperature 82 °F 70 °F 84 °F (2003)
Min Temperature 51 °F 50 °F 41 °F (1999)
Cooling Degree Days 2    
Growing Degree Days 16 (Base 50)    
Moisture  
Dew Point 49 °F    
Average Humidity 53    
Maximum Humidity 100    
Minimum Humidity 24    
Precipitation  
Precipitation 0.00 in - - ()
Sea Level Pressure  
Sea Level Pressure 29.84 in    
Wind  
Wind Speed 8 mph (West)    
Max Wind Speed 25 mph    
Max Gust Speed 34 mph    
Visibility 10 miles    
Events      
Averages and records for this station are not official NWS values.
T = Trace of Precipitation, MM = Missing Value Source: NWS Daily Summary

Daily Weather History Graph

Daily Weather History Graph

Search for Another Location

Airport or City:

Trip Planner

Search our weather history database for the weather conditions in past years. The results will help you decide how hot, cold, wet, or windy it might be!

Date:

Astronomy

Jun. 15, 2013 Rise Set
Actual Time 5:27 AM CDT 9:27 PM CDT
Civil Twilight 4:46 AM CDT 10:08 PM CDT
Nautical Twilight 3:49 AM CDT 11:05 PM CDT
Astronomical Twilight 2:15 AM CDT 12:39 AM CDT
Moon 12:30 PM CDT (6/15) 12:38 AM CDT (6/15)
Length of Visible Light 17h 22m
Length of Day
16h 00m
Waxing Crescent, 40% of the Moon is Illuminated
Jun 15
Waxing Crescent
Jun 16
First Quarter
Jun 23
Full
Jun 29
Last Quarter
Jul 8
New

Hourly Weather History & Observations

Time (CDT) Temp. Dew Point Humidity Pressure Visibility Wind Dir Wind Speed Gust Speed Precip Events Conditions
12:15 AM 69.8 °F 62.6 °F 78% 29.81 in 10.0 mi South 5.8 mph - N/A   Scattered Clouds
12:35 AM 66.2 °F 62.6 °F 88% 29.81 in 10.0 mi Calm Calm - N/A   Clear
12:54 AM 66.2 °F 62.6 °F 88% 29.81 in 10.0 mi Calm Calm - N/A   Clear
1:15 AM 64.4 °F 60.8 °F 88% 29.81 in 10.0 mi Calm Calm - N/A   Clear
1:35 AM 66.2 °F 62.6 °F 88% 29.81 in 10.0 mi WNW 6.9 mph - N/A   Clear
1:54 AM 66.2 °F 60.8 °F 83% 29.83 in 10.0 mi NW 17.3 mph - N/A   Clear
2:15 AM 62.6 °F 53.6 °F 72% 29.83 in 10.0 mi NNW 11.5 mph - N/A   Clear
2:35 AM 60.8 °F 51.8 °F 72% 29.84 in 10.0 mi NW 11.5 mph - N/A   Clear
2:54 AM 60.8 °F 51.8 °F 72% 29.85 in 10.0 mi NNW 8.1 mph - N/A   Clear
3:15 AM 59.0 °F 51.8 °F 77% 29.86 in 10.0 mi NNW 8.1 mph - N/A   Clear
3:34 AM 57.2 °F 51.8 °F 82% 29.86 in 10.0 mi NNW 4.6 mph - N/A   Clear
3:54 AM 57.2 °F 51.8 °F 82% 29.86 in 10.0 mi Calm Calm - N/A   Clear
4:15 AM 55.4 °F 51.8 °F 88% 29.87 in 10.0 mi Calm Calm - N/A   Clear
4:34 AM 55.4 °F 51.8 °F 88% 29.87 in 10.0 mi Calm Calm - N/A   Clear
4:55 AM 55.4 °F 51.8 °F 88% 29.88 in 10.0 mi Calm Calm - N/A   Clear
5:14 AM 53.6 °F 51.8 °F 94% 29.88 in 10.0 mi Calm Calm - N/A   Clear
5:34 AM 55.4 °F 51.8 °F 88% 29.87 in 10.0 mi Calm Calm - N/A   Clear
5:55 AM 51.8 °F 51.8 °F 100% 29.87 in 10.0 mi Calm Calm - N/A   Clear
6:14 AM 55.4 °F 51.8 °F 88% 29.88 in 10.0 mi Calm Calm - N/A   Clear
6:34 AM 55.4 °F 51.8 °F 88% 29.88 in 10.0 mi Calm Calm - N/A   Clear
6:55 AM 57.2 °F 53.6 °F 88% 29.89 in 10.0 mi SW 5.8 mph - N/A   Clear
7:14 AM 60.8 °F 55.4 °F 82% 29.90 in 10.0 mi SW 5.8 mph - N/A   Clear
7:34 AM 62.6 °F 53.6 °F 72% 29.90 in 10.0 mi WSW 4.6 mph - N/A   Clear
7:55 AM 62.6 °F 53.6 °F 72% 29.91 in 10.0 mi West 4.6 mph - N/A   Clear
8:14 AM 64.4 °F 53.6 °F 68% 29.90 in 10.0 mi West 5.8 mph - N/A   Clear
8:34 AM 64.4 °F 53.6 °F 68% 29.88 in 10.0 mi WNW 9.2 mph - N/A   Clear
8:55 AM 66.2 °F 53.6 °F 64% 29.88 in 10.0 mi WNW 6.9 mph - N/A   Clear
9:14 AM 66.2 °F 53.6 °F 64% 29.88 in 10.0 mi WNW 8.1 mph - N/A   Clear
9:34 AM 69.8 °F 51.8 °F 53% 29.89 in 10.0 mi WSW 8.1 mph - N/A   Clear
9:55 AM 69.8 °F 51.8 °F 53% 29.89 in 10.0 mi WSW 8.1 mph - N/A   Clear
10:14 AM 71.6 °F 50.0 °F 46% 29.89 in 10.0 mi West 8.1 mph - N/A   Clear
10:35 AM 71.6 °F 50.0 °F 46% 29.88 in 10.0 mi West 10.4 mph - N/A   Clear
10:55 AM 73.4 °F 50.0 °F 44% 29.88 in 10.0 mi West 8.1 mph - N/A   Clear
11:14 AM 75.2 °F 48.2 °F 38% 29.88 in 10.0 mi WSW 9.2 mph - N/A   Clear
11:35 AM 75.2 °F 46.4 °F 36% 29.87 in 10.0 mi West 11.5 mph - N/A   Clear
11:55 AM 77.0 °F 42.8 °F 29% 29.87 in 10.0 mi West 11.5 mph - N/A   Clear
12:14 PM 78.8 °F 42.8 °F 28% 29.87 in 10.0 mi WNW 11.5 mph 19.6 mph N/A   Clear
12:35 PM 78.8 °F 39.2 °F 24% 29.86 in 10.0 mi WSW 11.5 mph 21.9 mph N/A   Clear
12:54 PM 78.8 °F 42.8 °F 28% 29.86 in 10.0 mi West 18.4 mph 21.9 mph N/A   Clear
1:14 PM 78.8 °F 44.6 °F 30% 29.85 in 10.0 mi West 18.4 mph 23.0 mph N/A   Clear
1:35 PM 80.6 °F 42.8 °F 26% 29.85 in 10.0 mi West 21.9 mph 29.9 mph N/A   Clear
1:54 PM 80.6 °F 42.8 °F 26% 29.84 in 10.0 mi WSW 18.4 mph 25.3 mph N/A   Clear
2:14 PM 80.6 °F 41.0 °F 24% 29.84 in 10.0 mi WSW 17.3 mph 28.8 mph N/A   Scattered Clouds
2:35 PM 80.6 °F 42.8 °F 26% 29.83 in 10.0 mi WSW 16.1 mph - N/A   Scattered Clouds
2:54 PM 82.4 °F 44.6 °F 26% 29.82 in 10.0 mi WSW 21.9 mph 26.5 mph N/A   Scattered Clouds
3:14 PM 80.6 °F 42.8 °F 26% 29.82 in 10.0 mi WSW 15.0 mph - N/A   Scattered Clouds
3:35 PM 82.4 °F 44.6 °F 26% 29.81 in 10.0 mi WSW 18.4 mph 21.9 mph N/A   Scattered Clouds
3:54 PM 82.4 °F 42.8 °F 25% 29.81 in 10.0 mi WSW 16.1 mph 24.2 mph N/A   Scattered Clouds
4:15 PM 80.6 °F 44.6 °F 28% 29.80 in 10.0 mi West 19.6 mph 27.6 mph N/A   Scattered Clouds
4:35 PM 80.6 °F 44.6 °F 28% 29.80 in 10.0 mi West 19.6 mph - N/A   Scattered Clouds
4:54 PM 82.4 °F 42.8 °F 25% 29.80 in 10.0 mi West 25.3 mph 31.1 mph N/A   Scattered Clouds
5:15 PM 80.6 °F 42.8 °F 26% 29.80 in 10.0 mi West 21.9 mph 26.5 mph N/A   Clear
5:35 PM 80.6 °F 42.8 °F 26% 29.79 in 10.0 mi West 20.7 mph 34.5 mph N/A   Clear
5:54 PM 80.6 °F 42.8 °F 26% 29.79 in 10.0 mi WNW 21.9 mph - N/A   Clear
6:15 PM 78.8 °F 44.6 °F 30% 29.79 in 10.0 mi WNW 19.6 mph 28.8 mph N/A   Scattered Clouds
6:35 PM 78.8 °F 44.6 °F 30% 29.80 in 10.0 mi WNW 20.7 mph 28.8 mph N/A   Scattered Clouds
6:54 PM 78.8 °F 44.6 °F 30% 29.80 in 10.0 mi WNW 19.6 mph 27.6 mph N/A   Clear
7:15 PM 77.0 °F 46.4 °F 34% 29.80 in 10.0 mi WNW 18.4 mph 23.0 mph N/A   Clear
7:34 PM 77.0 °F 46.4 °F 34% 29.80 in 10.0 mi WNW 21.9 mph 26.5 mph N/A   Clear
7:55 PM 75.2 °F 46.4 °F 36% 29.80 in 10.0 mi WNW 15.0 mph 21.9 mph N/A   Clear
8:14 PM 75.2 °F 46.4 °F 36% 29.80 in 10.0 mi WNW 15.0 mph 21.9 mph N/A   Clear
8:34 PM 73.4 °F 46.4 °F 38% 29.81 in 10.0 mi WNW 12.7 mph - N/A   Clear
8:55 PM 73.4 °F 46.4 °F 38% 29.81 in 10.0 mi WNW 12.7 mph - N/A   Clear
9:14 PM 71.6 °F 46.4 °F 41% 29.81 in 10.0 mi West 9.2 mph - N/A   Clear
9:34 PM 68.0 °F 48.2 °F 49% 29.81 in 10.0 mi West 8.1 mph - N/A   Clear
9:55 PM 68.0 °F 48.2 °F 49% 29.81 in 10.0 mi West 9.2 mph - N/A   Clear
10:14 PM 66.2 °F 48.2 °F 52% 29.82 in 10.0 mi West 6.9 mph - N/A   Clear
10:34 PM 66.2 °F 48.2 °F 52% 29.82 in 10.0 mi West 6.9 mph - N/A   Clear
10:55 PM 66.2 °F 48.2 °F 52% 29.83 in 10.0 mi West 8.1 mph - N/A   Clear
11:14 PM 66.2 °F 48.2 °F 52% 29.83 in 10.0 mi WSW 8.1 mph - N/A   Clear
11:34 PM 66.2 °F 48.2 °F 52% 29.83 in 10.0 mi West 9.2 mph - N/A   Clear
11:55 PM 66.2 °F 48.2 °F 52% 29.83 in 10.0 mi West 9.2 mph - N/A   Clear